Park Rapids, MN

4:13 PM CDT on September 27, 2016 (GMT -0500)
Park Rapids Municipal

Weather History for KPKD - October, 2013

Change the Weather History Date:

Monday, October 7, 2013

  Actual Average Record
Temperature  
Mean Temperature 48 °F -  
Max Temperature 63 °F 58 °F 84 °F (1966)
Min Temperature 33 °F 34 °F 18 °F (1952)
Degree Days  
Heating Degree Days 18    
Moisture  
Dew Point 38 °F    
Average Humidity 70    
Maximum Humidity 96    
Minimum Humidity 39    
Precipitation  
Precipitation 0.00 in - - ()
Sea Level Pressure  
Sea Level Pressure 29.93 in    
Wind  
Wind Speed 5 mph (West)    
Max Wind Speed 12 mph    
Max Gust Speed -    
Visibility 10 miles    
Events      
Averages and records for this station are not official NWS values.
T = Trace of Precipitation, MM = Missing Value Source: NWS Daily Summary

Daily Weather History Graph

Daily Weather History Graph

Search for Another Location

Airport or City:

Trip Planner

Search our weather history database for the weather conditions in past years. The results will help you decide how hot, cold, wet, or windy it might be!

Date:

Astronomy

Oct. 07, 2013 Rise Set
Actual Time 7:27 AM CDT 6:47 PM CDT
Civil Twilight 6:57 AM CDT 7:17 PM CDT
Nautical Twilight 6:21 AM CDT 7:53 PM CDT
Astronomical Twilight 5:46 AM CDT 8:28 PM CDT
Moon 10:30 AM CDT (10/7) 8:20 PM CDT (10/7)
Length of Visible Light 12h 20m
Length of Day
11h 20m
Waxing Crescent, 9% of the Moon is Illuminated
Oct 7
Waxing Crescent
Oct 11
First Quarter
Oct 18
Full
Oct 26
Last Quarter
Nov 3
New

Hourly Weather History & Observations

Time (CDT) Temp. Windchill Dew Point Humidity Pressure Visibility Wind Dir Wind Speed Gust Speed Precip Events Conditions
12:53 AM 44.1 °F 40.1 °F 39.9 °F 85% 29.85 in 10.0 mi WNW 6.9 mph - N/A   Clear
1:53 AM 39.9 °F 35.1 °F 37.9 °F 93% 29.86 in 10.0 mi WNW 6.9 mph - N/A   Partly Cloudy
2:53 AM 39.0 °F - 37.0 °F 93% 29.86 in 10.0 mi Calm Calm - N/A   Clear
3:53 AM 37.0 °F - 35.1 °F 93% 29.87 in 10.0 mi Calm Calm - N/A   Clear
4:53 AM 35.1 °F 31.0 °F 34.0 °F 96% 29.89 in 10.0 mi NNW 4.6 mph - N/A   Clear
5:53 AM 35.1 °F - 33.1 °F 92% 29.90 in 10.0 mi Calm Calm - N/A   Clear
6:53 AM 33.1 °F 28.7 °F 32.0 °F 96% 29.94 in 10.0 mi West 4.6 mph - N/A   Clear
7:53 AM 36.0 °F 33.3 °F 34.0 °F 93% 29.95 in 10.0 mi WNW 3.5 mph - N/A   Clear
8:53 AM 43.0 °F 40.3 °F 39.0 °F 86% 29.96 in 10.0 mi WNW 4.6 mph - N/A   Clear
9:53 AM 50.0 °F - 42.1 °F 74% 29.97 in 10.0 mi NW 6.9 mph - N/A   Clear
10:53 AM 54.0 °F - 41.0 °F 62% 29.98 in 10.0 mi NW 9.2 mph - N/A   Clear
11:53 AM 57.0 °F - 39.0 °F 51% 29.98 in 10.0 mi Variable 4.6 mph - N/A   Clear
12:53 PM 59.0 °F - 37.9 °F 46% 29.97 in 10.0 mi WNW 6.9 mph - N/A   Clear
1:53 PM 61.0 °F - 37.9 °F 42% 29.96 in 10.0 mi WNW 11.5 mph - N/A   Clear
2:53 PM 62.1 °F - 39.0 °F 43% 29.95 in 10.0 mi WNW 8.1 mph - N/A   Clear
3:53 PM 62.1 °F - 37.0 °F 39% 29.94 in 10.0 mi SW 4.6 mph - N/A   Clear
4:53 PM 62.1 °F - 37.0 °F 39% 29.94 in 10.0 mi WSW 6.9 mph - N/A   Clear
5:53 PM 59.0 °F - 39.9 °F 49% 29.94 in 10.0 mi WSW 4.6 mph - N/A   Clear
6:53 PM 55.0 °F - 39.0 °F 55% 29.95 in 10.0 mi South 4.6 mph - N/A   Clear
7:53 PM 52.0 °F - 39.9 °F 63% 29.94 in 10.0 mi SSE 5.8 mph - N/A   Clear
8:53 PM 50.0 °F - 39.9 °F 68% 29.93 in 10.0 mi SSE 6.9 mph - N/A   Clear
9:53 PM 50.0 °F - 39.0 °F 66% 29.92 in 10.0 mi SE 5.8 mph - N/A   Clear
10:53 PM 44.1 °F 40.8 °F 37.9 °F 79% 29.92 in 10.0 mi SSE 5.8 mph - N/A   Clear
11:53 PM 46.9 °F - 39.0 °F 74% 29.90 in 10.0 mi SE 8.1 mph - N/A   Clear